www.pogodaiklimat.ru

Погода и климат >> Архив погоды >> Австрия >> Лейзер Берге


ПОГОДА в Лейзер Берге

  • Прогноз погоды в Лейзер Берге
  • Монитор погоды в Лейзер Берге

АРХИВ ПОГОДЫ в Лейзер Берге

Время (UTC), дата Ветер
(напр.,м/с)
 
Видим.   Явления Облачность Т
(С)
Тd
(С)
f
(%)
Тe
(С)
Тes
(С)
Комфортность P
(гПа)
Po
(гПа)
Тmin
(С)
Tmax
(С)
R
(мм)
R24
(мм)
S
(см)
19 10.06 ЮВ 10
{15}
н/о н/о +23.7 +16.9 66 +27 +27 жарко 1011.3 960.0
20 10.06 ЮВ 7
{14}
н/о н/о +23.3 +17.2 69 +29 +29 душно 1011.9 960.5
21 10.06 ЮВ 8
{15}
н/о н/о +22.4 +17.4 73 +27 +27 душно 1011.3 959.8
22 10.06 ЮВ 11
{15}
н/о н/о +22.4 +17.2 72 +27 +27 душно 1011.2 959.7
23 10.06 Ю 11
{15}
н/о н/о +22.4 +16.9 71 +27 +27 душно 1011.2 959.7
00 11.06 ЮВ 5
{15}
н/о н/о +21.0 +17.1 78 +25 +25 комфорт 1011.4 959.6
01 11.06 ЮВ 11
{14}
н/о н/о +21.0 +17.0 78 +24 +24 комфорт 1010.8 959.1
02 11.06 ЮВ 10
{15}
н/о н/о +20.1 +17.1 83 +22 +22 комфорт 1010.8 958.9
03 11.06 ЮВ 8
{15}
н/о н/о +20.0 +16.8 82 +22 +22 комфорт 1010.8 958.9
04 11.06 Ю 12
{16}
н/о н/о +20.7 +16.9 79 +23 +23 комфорт 1010.6 958.8
05 11.06 ЮВ 8
{16}
н/о н/о +20.2 +17.5 84 +23 +23 комфорт 1010.9 959.0
06 11.06 ЮВ 7
{16}
н/о н/о +21.5 +18.3 82 +26 +26 душно 1011.2 959.6 +19.8 +24.5
07 11.06 ЮВ 9 н/о н/о +22.9 +18.7 77 +29 +29 очень
душно
1010.7 959.3
08 11.06 ЮВ 11
{17}
н/о н/о +24.3 +18.7 71 +29 +29 душно 1010.7 959.6
09 11.06 ЮВ 13
{18}
н/о н/о +24.9 +18.2 66 +29 +29 душно 1011.0 959.9
10 11.06 ЮВ 11
{18}
н/о н/о +25.8 +20.0 70 +32 +32 очень
душно
1010.9 960.0
11 11.06 Ю 12
{17}
н/о н/о +27.0 +19.0 62 +32 +32 очень
душно
1010.6 959.9
12 11.06 Ю 13
{18}
н/о н/о +27.1 +17.5 56 +31 +31 душно 1010.5 959.8
13 11.06 ЮВ 12
{17}
н/о н/о +27.5 +16.3 50 +31 +31 душно 1010.1 959.5
14 11.06 ЮВ 11
{17}
н/о н/о +27.6 +16.7 51 +31 +31 душно 1009.8 959.2
15 11.06 ЮВ 10
{17}
н/о н/о +27.4 +17.1 53 +31 +31 душно 1009.7 959.1
16 11.06 Ю 11
{15}
н/о н/о +27.0 +16.3 52 +30 +30 душно 1009.7 959.0
17 11.06 Ю 11
{15}
н/о н/о +26.0 +16.7 57 +30 +30 душно 1010.1 959.2
18 11.06 ЮВ 9
{18}
н/о н/о +24.6 +18.6 69 +29 +29 душно 1010.6 959.5 +21.2 +27.7
19 11.06 ЮВ 9
{14}
н/о н/о +23.8 +17.5 68 +28 +28 душно 1010.5 959.3
20 11.06 ЮВ 10
{14}
н/о н/о +23.3 +17.0 68 +28 +28 душно 1011.0 959.6
21 11.06 ЮВ 10
{14}
н/о н/о +22.7 +17.2 71 +28 +28 душно 1011.1 959.6
22 11.06 Ю 10 н/о н/о +22.6 +17.7 74 +28 +28 душно 1011.1 959.6
23 11.06 Ю 10 н/о н/о +22.3 +17.5 74 +27 +27 душно 1010.5 959.0
00 12.06 ЮВ 7
{14}
н/о н/о +21.6 +17.1 76 +26 +26 душно 1009.8 958.2
01 12.06 ЮВ 9 н/о н/о +21.0 +16.9 77 +24 +24 комфорт 1009.8 958.1
02 12.06 ЮВ 9 н/о н/о +20.5 +16.1 76 +23 +23 комфорт 1009.7 957.9
03 12.06 ЮВ 7 н/о н/о +18.6 +16.2 86 +19 +19 1010.3 958.2
04 12.06 ЮВ 8 н/о н/о +18.7 +15.6 82 +19 +19 1010.7 958.5
05 12.06 ЮВ 10
{13}
н/о н/о +19.3 +16.0 81 +20 +20 1010.7 958.7
06 12.06 ЮВ 9
{14}
н/о н/о +21.2 +16.4 74 +25 +25 комфорт 1010.4 958.7 +18.4 +24.8
07 12.06 ЮВ 12
{16}
н/о н/о +22.0 +15.8 68 +26 +26 душно 1010.5 958.9
08 12.06 Ю 12
{16}
н/о н/о +24.1 +15.4 58 +27 +27 жарко 1010.3 959.1
09 12.06 ЮВ 12
{17}
н/о н/о +24.8 +16.5 60 +28 +28 жарко 1010.3 959.2
10 12.06 Ю 15
{20}
н/о н/о +25.8 +16.2 55 +29 +29 душно 1010.0 959.1
11 12.06 Ю 13
{20}
н/о н/о +25.9 +16.9 58 +30 +30 душно 1010.4 959.5
12 12.06 ЮВ 13
{20}
н/о н/о +26.4 +16.4 54 +30 +30 душно 1010.0 959.2
13 12.06 ЮВ 11
{19}
н/о н/о +27.3 +16.9 53 +31 +31 душно 1009.6 959.0
14 12.06 Ю 13
{19}
н/о н/о +27.3 +15.9 50 +31 +31 душно 1009.1 958.5
15 12.06 Ю 12
{19}
н/о н/о +27.2 +16.0 50 +30 +30 душно 1008.8 958.2
16 12.06 Ю 13
{19}
н/о н/о +27.0 +16.2 52 +30 +30 душно 1008.3 957.7
17 12.06 ЮВ 10
{19}
н/о н/о +26.1 +17.2 58 +30 +30 душно 1008.6 957.8
18 12.06 ЮВ 9
{20}
н/о н/о +25.1 +17.9 64 +29 +29 душно 1009.0 958.1 +20.8 +27.6
19 12.06 ЮВ 10
{14}
н/о н/о +24.5 +17.8 66 +29 +29 душно 1009.6 958.5
20 12.06 ЮВ 9
{14}
н/о н/о +23.7 +17.7 69 +28 +28 душно 1010.1 958.9
21 12.06 Ю 9
{14}
н/о н/о +23.4 +17.8 71 +29 +29 душно 1010.3 959.0
22 12.06 Ю 9
{13}
н/о н/о +23.0 +18.1 74 +29 +29 очень
душно
1010.9 959.5
23 12.06 Ю 9 н/о н/о +22.6 +18.1 76 +28 +28 душно 1010.9 959.5
00 13.06 Ю 6
{14}
н/о н/о +20.3 +16.9 81 +23 +23 комфорт 1011.4 959.5
01 13.06 ЮЗ 7 н/о н/о +19.1 +16.0 82 +20 +20 1011.4 959.3
02 13.06 ЮЗ 5 н/о н/о +17.6 +15.1 85 +17 +17 1011.7 959.3
03 13.06 ЮЗ 5 н/о н/о +16.8 +14.6 87 +16 +16 1012.1 959.5
04 13.06 ЮЗ 7 н/о н/о +16.0 +13.9 87 +14 +14 1012.5 959.7
05 13.06 ЮЗ 7 н/о н/о +16.1 +13.7 86 +15 +15 1012.9 960.1
06 13.06 ЮЗ 4
{14}
н/о н/о +17.7 +14.7 83 +17 +17 1013.3 960.8 +15.9 +25.2
07 13.06 З 3 н/о н/о +19.2 +15.4 79 +21 +21 комфорт 1013.4 961.2
08 13.06 З 2 н/о н/о +20.9 +16.1 74 +25 +25 комфорт 1013.3 961.4
09 13.06 СЗ 1 н/о н/о +23.0 +17.0 69 +28 +28 душно 1013.0 961.5
10 13.06 ЮВ 2 н/о н/о +24.0 +17.9 69 +28 +28 душно 1012.8 961.5
11 13.06 Ю 3 н/о н/о +24.6 +18.4 68 +29 +29 душно 1012.5 961.3
12 13.06 Ю 3 н/о н/о +24.8 +18.3 67 +29 +29 душно 1012.0 960.9
13 13.06 ЮВ 3 н/о н/о +26.0 +19.1 66 +31 +31 очень
душно
1011.6 960.7
14 13.06 Ю 5 н/о н/о +26.8 +19.4 64 +32 +32 очень
душно
1011.1 960.4
15 13.06 ЮВ 4 н/о н/о +27.4 +19.5 62 +33 +33 очень
душно
1010.6 960.0
16 13.06 ЮВ 5 н/о н/о +27.3 +19.6 63 +33 +33 очень
душно
1010.3 959.7
17 13.06 Ю 8 н/о н/о +27.6 +18.5 58 +33 +33 очень
душно
1009.7 959.2
18 13.06 Ю 8 н/о н/о +26.4 +18.1 60 +31 +31 душно 1010.0 959.2 +17.5 +27.9
19 13.06 ЮВ 6 н/о н/о +25.4 +17.9 63 +30 +30 душно 1010.8 959.8
20 13.06 ЮВ 5 н/о н/о +24.9 +17.8 65 +29 +29 душно 1011.3 960.2
21 13.06 ЮВ 6 н/о н/о +24.0 +17.4 67 +28 +28 душно 1012.2 960.9
22 13.06 В 6 н/о н/о +22.6 +17.7 74 +28 +28 душно 1012.9 961.3
23 13.06 ЮВ 6 н/о н/о +21.1 +17.3 79 +25 +25 комфорт 1013.0 961.2
00 14.06 С 4 н/о н/о +19.9 +17.0 83 +23 +23 комфорт 1014.0 961.9
01 14.06 С 9 н/о н/о +17.8 +16.7 93 +17 +17 1014.4 961.9
02 14.06 С 10
{15}
н/о н/о +17.1 +15.9 93 +16 +16 1015.3 962.6
03 14.06 С 9
{15}
н/о н/о +17.3 +16.4 94 +16 +16 1015.9 963.2
04 14.06 С 8 н/о н/о +17.4 +16.1 92 +16 +16 1016.8 964.1
05 14.06 С 5 н/о н/о +19.0 +17.3 90 +20 +20 1017.1 964.7
06 14.06 СЗ 6
{15}
н/о н/о +19.9 +17.1 84 +22 +22 комфорт 1017.8 965.5 +17.1 +26.6
07 14.06 С 6 н/о н/о +21.4 +17.7 79 +26 +26 душно 1017.9 965.9
08 14.06 С 4 н/о н/о +23.2 +19.0 77 +29 +29 душно 1018.1 966.4
09 14.06 С 5 н/о н/о +24.5 +19.1 72 +29 +29 душно 1018.0 966.5
10 14.06 С 3 н/о н/о +26.2 +20.4 70 +32 +32 очень
душно
1017.7 966.6
11 14.06 В 1 н/о н/о +26.7 +19.4 64 +32 +32 очень
душно
1017.6 966.5 0.0
12 14.06 Ю 2 н/о н/о +27.0 +18.5 60 +32 +32 очень
душно
1017.0 966.0 0.0
13 14.06 ЮВ 4 н/о н/о +27.1 +17.8 57 +32 +32 очень
душно
1016.7 965.7
14 14.06 ЮВ 3 н/о н/о +27.7 +16.4 50 +31 +31 душно 1016.4 965.5
15 14.06 ЮВ 3 н/о н/о +27.9 +17.5 53 +32 +32 душно 1015.9 965.1 0.0
16 14.06 ЮВ 5 н/о н/о +27.6 +17.1 53 +32 +32 очень
душно
1015.5 964.6
17 14.06 ЮВ 5 н/о н/о +27.1 +18.1 58 +32 +32 очень
душно
1015.2 964.3
18 14.06 ЮВ 5 н/о н/о +26.5 +17.9 59 +31 +31 душно 1015.3 964.3 +19.7 +28.1 0.0
19 14.06 ЮВ 6 н/о н/о +25.6 +17.6 61 +30 +30 душно 1015.2 964.0
20 14.06 ЮВ 7 н/о н/о +24.5 +17.3 64 +28 +28 душно 1015.6 964.2
21 14.06 ЮВ 7 н/о н/о +23.4 +17.0 67 +29 +29 душно 1015.3 963.7
22 14.06 ЮВ 8 н/о н/о +22.9 +16.3 66 +27 +27 душно 1015.2 963.5
23 14.06 ЮВ 9 н/о н/о +22.4 +16.1 68 +27 +27 душно 1014.7 963.0
00 15.06 ЮВ 9 н/о н/о +22.2 +17.0 72 +27 +27 душно 1014.3 962.6
01 15.06 ЮВ 10 н/о н/о +21.4 +17.2 77 +25 +25 комфорт 1013.9 962.1
02 15.06 ЮВ 10 н/о н/о +21.6 +16.9 75 +26 +26 душно 1013.3 961.5
03 15.06 ЮВ 8 н/о н/о +21.0 +17.0 78 +24 +24 комфорт 1013.3 961.4
04 15.06 ЮВ 10 н/о н/о +20.9 +17.1 79 +24 +24 комфорт 1012.8 960.9
05 15.06 ЮВ 10
{14}
н/о н/о +21.7 +17.7 78 +26 +26 душно 1012.6 960.9
06 15.06 ЮВ 7
{14}
н/о н/о +22.0 +17.8 77 +27 +27 душно 1012.4 960.8 +19.9 +26.6
07 15.06 ЮВ 8 н/о н/о +23.8 +18.4 72 +28 +28 душно 1012.4 961.1
08 15.06 ЮВ 9
{13}
н/о н/о +24.6 +19.0 71 +30 +30 очень
душно
1012.2 961.0
09 15.06 ЮВ 10
{14}
н/о н/о +25.6 +19.6 69 +31 +31 очень
душно
1012.1 961.1
10 15.06 Ю 9
{13}
н/о н/о +26.6 +18.5 61 +31 +31 душно 1011.7 960.9
11 15.06 ЮВ 9
{14}
н/о н/о +27.6 +19.5 61 +33 +33 очень
душно
1011.3 960.7
12 15.06 Ю 9
{14}
н/о н/о +28.4 +19.8 60 +35 +35 очень
душно
1011.4 960.9
13 15.06 ЮВ 8 н/о н/о +28.2 +18.8 57 +33 +33 очень
душно
1011.2 960.7
14 15.06 Ю 9 н/о н/о +27.6 +18.4 57 +32 +32 очень
душно
1011.0 960.4
15 15.06 ЮВ 7 н/о н/о +27.2 +18.4 59 +32 +32 очень
душно
1010.5 959.8
16 15.06 ЮВ 10
{15}
н/о н/о +28.2 +18.7 56 +33 +33 очень
душно
1009.3 958.9
17 15.06 Ю 6
{13}
н/о н/о +27.5 +19.0 60 +33 +33 очень
душно
1009.6 959.1
18 15.06 ЮВ 7
{15}
н/о н/о +26.7 +18.6 61 +32 +32 очень
душно
1009.7 959.0 +21.9 +29.1
19 15.06 ЮВ 6 н/о н/о +26.3 +18.6 63 +31 +31 душно 1010.0 959.2
20 15.06 Ю 7
{15}
н/о н/о +24.4 +18.4 69 +29 +29 душно 1011.0 959.9
21 15.06 З 8
{15}
н/о н/о +22.1 +16.0 68 +26 +26 душно 1011.3 959.7
22 15.06 СЗ 12
{15}
н/о н/о +21.7 +15.0 66 +25 +25 комфорт 1012.0 960.3
23 15.06 С 15
{18}
н/о н/о +20.6 +15.1 71 +22 +22 комфорт 1012.0 960.1
00 16.06 С 13
{18}
н/о н/о +19.4 +15.1 76 +20 +20 1012.2 960.1
01 16.06 С 10
{15}
н/о н/о +18.4 +14.9 80 +18 +18 1012.6 960.3
02 16.06 С 7 н/о н/о +18.0 +14.9 82 +17 +17 1013.2 960.8
03 16.06 С 8
{15}
н/о н/о +17.7 +14.8 83 +17 +17 1013.3 960.8
04 16.06 С 7 н/о н/о +17.6 +15.1 85 +17 +17 1013.8 961.3
05 16.06 СЗ 9 н/о н/о +18.1 +15.1 83 +17 +17 1014.6 962.1
06 16.06 СЗ 9
{18}
н/о н/о +19.1 +15.5 80 +20 +20 1015.0 962.7 +17.2 +26.8
07 16.06 СЗ 9 н/о н/о +21.0 +16.1 74 +24 +24 комфорт 1015.2 963.2
08 16.06 СЗ 10
{14}
н/о н/о +21.0 +15.9 73 +24 +24 комфорт 1015.6 963.6 0.0
09 16.06 СЗ 8
{14}
н/о н/о +21.8 +17.1 75 +26 +26 душно 1016.1 964.2 0.0
10 16.06 З 6 н/о н/о +21.4 +16.6 74 +25 +25 комфорт 1016.6 964.6
11 16.06 З 7 н/о н/о +21.1 +16.8 76 +25 +25 комфорт 1017.2 965.1
12 16.06 СЗ 7
{14}
н/о н/о +23.5 +17.5 69 +27 +27 душно 1016.5 964.9 0.0
13 16.06 СЗ 8
{14}
н/о н/о +22.5 +17.1 72 +27 +27 душно 1016.5 964.7
14 16.06 СЗ 10
{15}
н/о н/о +20.9 +16.6 76 +24 +24 комфорт 1016.8 964.7
15 16.06 СЗ 11
{15}
н/о н/о +22.6 +16.5 68 +27 +27 душно 1016.4 964.6
16 16.06 С 10
{15}
н/о н/о +22.2 +16.3 69 +26 +26 душно 1016.5 964.7
17 16.06 СЗ 9
{14}
н/о н/о +21.0 +15.2 69 +24 +24 комфорт 1018.1 965.9
18 16.06 С 10
{15}
н/о н/о +20.0 +14.7 72 +21 +21 комфорт 1018.2 965.9 +19.1 +24.0 0.0
19 16.06 С 13
{19}
н/о н/о +18.8 +11.6 63 +18 +18 1018.2 965.6
20 16.06 С 10
{17}
н/о н/о +17.7 +12.0 69 +16 +16 1019.5 966.6
21 16.06 С 10
{19}
н/о н/о +17.1 +11.5 70 +16 +16 1020.3 967.3
22 16.06 С 10
{13}
н/о н/о +16.5 +11.7 73 +15 +15 1019.9 966.8
23 16.06 С 9
{13}
н/о н/о +15.9 +11.8 77 +14 +14 1020.2 967.0
00 17.06 С 7
{19}
н/о н/о +15.4 +11.7 79 +14 +14 1020.6 967.3
01 17.06 С 7 н/о н/о +14.9 +11.7 81 +13 +13 1020.4 967.0
02 17.06 С 8 н/о н/о +15.2 +12.0 81 +13 +13 1020.2 966.9
03 17.06 С 8 н/о н/о +14.7 +11.9 83 +12 +12 1020.6 967.1
04 17.06 С 8 н/о н/о +14.9 +12.2 84 +13 +13 1020.7 967.3
05 17.06 С 8 н/о н/о +15.6 +12.8 83 +14 +14 1020.7 967.4
06 17.06 С 9
{19}
н/о н/о +17.2 +13.4 78 +16 +16 1020.4 967.4 +14.5 +20.4
07 17.06 С 8 н/о н/о +18.0 +13.5 75 +17 +17 1020.3 967.5
08 17.06 С 8 н/о н/о +19.8 +13.7 68 +21 +21 комфорт 1020.1 967.6
09 17.06 С 8 н/о н/о +20.7 +13.2 62 +23 +23 комфорт 1020.3 967.9
10 17.06 С 6 н/о н/о +21.3 +13.4 61 +24 +24 комфорт 1020.0 967.8
11 17.06 СВ 7 н/о н/о +22.2 +13.7 59 +25 +25 комфорт 1019.7 967.6
12 17.06 СВ 5 н/о н/о +23.3 +13.7 55 +27 +27 душно 1019.3 967.4
13 17.06 СВ 7 н/о н/о +23.2 +13.7 55 +27 +27 душно 1019.2 967.3
15 17.06 СВ 6 н/о н/о +23.1 +13.4 54 +26 +26 жарко 1018.1 966.3
17 17.06 СВ 5 н/о н/о +22.2 +13.7 59 +25 +25 комфорт 1017.8 965.8

 

Местоположение метеостанции Лейзер Берге (Австрия): широта 48.57 долгота 16.37 высота над уровнем моря 450 м.

В архиве по умолчанию представлена погода в Лейзер Берге за последнюю неделю. Архивные данные за месяц целиком и за предыдущие месяцы, начиная с января 2011 года, Вы можете получить, выбрав интересующий диапазон дат из раскрывающегося списка и нажав кнопку "Ввод!".


*Определитесь, кто Вы:
робот инопланетянин человек

Внимание! Время в таблицах - всемирное. Для получения местного времени необходимо прибавить поправку, которая равна 1 ч.

Смотрите также архив погоды в соседних городах и на ближайших метеорологических станциях:

Погода в Мистельбахе (Австрия) (17 км)
Погода в Пойсдорфе (Австрия) (22 км)
Погода в Штоккерау (Австрия) (25 км)
Погода в Тульн-ан-дер-Донау (Австрия) (33 км)
Погода в Вене (Австрия) (36 км)
Погода в Вене Донауфельд (Австрия) (36 км)
Погода в Реце (Австрия) (38 км)
Погода в Кучарловице (Чехия) (41 км)
Погода в Вене город (Австрия) (41 км)
Погода в Мариябрунн (Австрия) (42 км)

Пояснения к столбцам:

Ветер - указаны скорость ветра в м/с - средняя за 10 мин, порывы в срок и между сроками (в фигурных скобках) и направление, откуда дует ветер: С - северный, СВ - северо-восточный, В - восточный, ЮВ - юго-восточный, Ю - южный, ЮЗ - юго-западный, З - западный, СЗ - северо-западный.
Видимость - горизонтальная дальность видимости в метрах или километрах. При видимости от 1 до 10 км при отсутствии осадков обычно наблюдается дымка, при ухудшении видимости до 1 км и менее - туман. В сухую погоду видимость может ухудшаться дымом, пылью или мглою.
Явления - указаны атмосферные явления, наблюдавшиеся в срок или в последний час перед сроком; фигурными скобками обозначены явления, наблюдавшиеся между сроками (за 1-3 часа до срока); квадратными скобками обозначены град или гололедные отложения с указанием их диаметра в мм.
Облачность - указаны через наклонную черту общая и нижняя облачность в баллах и высота нижней границы облаков в метрах; квадратными скобками обозначены формы облаков: Ci - перистые, Cs - перисто-слоистые, Cc - перисто-кучевые, Ac - высококучевые, As - высокослоистые, Sc - слоисто-кучевые, Ns - слоисто-дождевые, Cu - кучевые, Cb - кучево-дождевые. Подробнее классификацию облаков см. в Атласе облаков (PDF).
T - Температура воздуха - температура, измеренная на высоте 2 м над землей.
Td - Температура точки росы - температура, при понижении до которой содержащийся в воздухе водяной пар достигнет насыщения.
f - Относительная влажность воздуха - влажноcть воздуха, измеренная на высоте 2 м над землей.
Te - Эффективная температура - температура, которую ощущает одетый по сезону человек в тени. Характеристика душности погоды. При расчете учитывается влияние влажности воздуха и скорости ветра на теплоощущения человека.
Tes - Эффективная температура на солнце - температура, которую ощущает человек, с поправкой на солнечный нагрев. Характеристика знойности погоды. Зависит от высоты солнца над горизонтом, облачности и скорости ветра. Ночью, в пасмурную погоду, а также при ветре 12 м/с и более поправка равна нулю.
P - Атмосферное давление - приведенное к уровню моря атмосферное давление.
Po - Атмосферное давление - измеренное на уровне метеостанции атмосферное давление.
Tmin - Минимальная температура - минимум температуры воздуха на высоте 2 м над землей.
Tmax - Максимальная температура - максимум температуры воздуха на высоте 2 м над землей.
R - Количество осадков - Количество выпавших осадков за период времени, мм. При наведении курсора мыши на число - период времени, за который выпало указанное количество осадков.
R24 - Количество осадков - Количество выпавших осадков за 24 часа, мм.
S - Снежный покров - Высота снежного покрова, см. При наведении курсора мыши на число - состояние снежного покрова и степень покрытия местности в баллах.